Anchorage, AK

9:32 AM AKST on February 27, 2017 (GMT -0900)
Merrill

Weather History for PAMR - November, 2010

Change the Weather History Date:

Saturday, November 20, 2010

  Actual Average Record
Temperature  
Mean Temperature 15 °F -  
Max Temperature 26 °F 26 °F 44 °F (2004)
Min Temperature 6 °F 16 °F -13 °F (1993)
Degree Days  
Heating Degree Days 50    
Moisture  
Dew Point 13 °F    
Average Humidity 86    
Maximum Humidity 93    
Minimum Humidity 75    
Precipitation  
Precipitation 0.00 in - - ()
Snow  
Snow 0.00 in - - ()
Snow Depth 1.00 in    
Sea Level Pressure  
Sea Level Pressure 30.38 in    
Wind  
Wind Speed 2 mph (ENE)    
Max Wind Speed 6 mph    
Max Gust Speed -    
Visibility 5 miles    
Events Fog    
Averages and records for this station are not official NWS values.
T = Trace of Precipitation, MM = Missing Value Source: NWS Daily Summary

Daily Weather History Graph

Daily Weather History Graph

Search for Another Location

Airport or City:

Trip Planner

Search our weather history database for the weather conditions in past years. The results will help you decide how hot, cold, wet, or windy it might be!

Date:

Astronomy

Nov. 20, 2010 Rise Set
Actual Time 9:19 AM AKST 4:10 PM AKST
Civil Twilight 8:25 AM AKST 5:04 PM AKST
Nautical Twilight 7:30 AM AKST 5:59 PM AKST
Astronomical Twilight 6:38 AM AKST 6:50 PM AKST
Moon 3:07 PM AKST (11/20) 8:41 AM AKST (11/20)
Length of Visible Light 8h 38m
Length of Day
6h 51m
Waxing Gibbous, 99% of the Moon is Illuminated
Nov 20
Waxing Gibbous
Nov 21
Full
Nov 28
Last Quarter
Dec 5
New
Dec 13
First Quarter

Hourly Weather History & Observations

Time (AKST) Temp. Windchill Dew Point Humidity Pressure Visibility Wind Dir Wind Speed Gust Speed Precip Events Conditions
12:53 AM 8.6 °F - 5.0 °F 85% 30.43 in 10.0 mi Calm Calm - N/A   Scattered Clouds
1:30 AM 6.8 °F -3.5 °F 3.2 °F 85% 30.43 in 2.0 mi ENE 5.8 mph - N/A   Mostly Cloudy
1:34 AM 6.8 °F - 5.0 °F 92% 30.43 in 1.0 mi Calm Calm - N/A   Mist
1:40 AM 6.8 °F -0.1 °F 5.0 °F 92% 30.43 in 0.5 mi East 3.5 mph - N/A Fog Fog
1:51 AM 10.4 °F - 8.6 °F 92% 30.42 in 0.2 mi Calm Calm - N/A Fog Fog
2:39 AM 10.4 °F - 6.8 °F 85% 30.43 in 5.5 mi Calm Calm - N/A   Mist
2:53 AM 8.6 °F 2.0 °F 6.8 °F 92% 30.43 in 5.5 mi North 3.5 mph - N/A   Mist
2:59 AM 8.6 °F 0.1 °F 6.8 °F 92% 30.43 in 3.0 mi NE 4.6 mph - N/A   Mostly Cloudy
3:53 AM 8.6 °F 2.0 °F 6.8 °F 92% 30.42 in 4.0 mi SE 3.5 mph - N/A   Mostly Cloudy
4:53 AM 8.6 °F - 6.8 °F 92% 30.41 in 3.0 mi Calm Calm - N/A   Mostly Cloudy
5:00 AM 10.4 °F - 6.8 °F 85% 30.41 in 5.5 mi Calm Calm - N/A   Mist
5:35 AM 10.4 °F 4.0 °F 6.8 °F 85% 30.42 in 0.8 mi NNE 3.5 mph - N/A Fog Fog
5:53 AM 10.4 °F 2.2 °F 6.8 °F 85% 30.42 in 0.8 mi NE 4.6 mph - N/A   Unknown
6:53 AM 10.4 °F - 8.6 °F 92% 30.42 in 0.2 mi Calm Calm - N/A Fog Fog
8:53 AM 10.4 °F - 8.6 °F 92% 30.42 in 3.0 mi Calm Calm - N/A Fog Light Freezing Fog
9:53 AM 10.4 °F 4.0 °F 8.6 °F 92% 30.42 in 3.0 mi East 3.5 mph - N/A Fog Light Freezing Fog
10:53 AM 14.0 °F - 12.2 °F 93% 30.41 in 10.0 mi Calm Calm - N/A Fog Light Freezing Fog
11:50 AM 15.8 °F - 14.0 °F 93% 30.41 in 10.0 mi Calm Calm - N/A   Partly Cloudy
12:53 PM 19.4 °F - 17.6 °F 93% 30.41 in 10.0 mi Calm Calm - N/A   Partly Cloudy
2:56 PM - - - N/A% 30.38 in 10.0 mi Variable 4.6 mph - N/A   Scattered Clouds
3:53 PM 21.9 °F - 17.1 °F 82% 30.35 in 10.0 mi Calm Calm - N/A   Unknown
4:30 PM 21.2 °F 16.4 °F 17.6 °F 86% 30.34 in 10.0 mi NE 3.5 mph - N/A   Scattered Clouds
4:53 PM 21.0 °F - 16.0 °F 81% 30.34 in 10.0 mi Calm Calm - N/A   Mostly Cloudy
5:53 PM 23.0 °F - 18.0 °F 81% 30.35 in 10.0 mi Calm Calm - N/A   Overcast
6:53 PM 24.1 °F - 18.0 °F 77% 30.34 in 10.0 mi Calm Calm - N/A   Overcast
7:53 PM 24.1 °F 19.7 °F 18.0 °F 77% 30.33 in 10.0 mi East 3.5 mph - N/A   Overcast
8:53 PM 24.1 °F - 19.0 °F 81% 30.33 in 10.0 mi Calm Calm - N/A   Overcast
9:00 PM 24.8 °F - 19.4 °F 80% 30.33 in 10.0 mi Calm Calm - N/A   Overcast
9:53 PM 24.1 °F - 19.9 °F 84% 30.33 in 4.0 mi Calm Calm - N/A   Overcast
10:26 PM 24.8 °F 20.5 °F 21.2 °F 86% 30.33 in 2.0 mi NNW 3.5 mph - N/A   Overcast
10:48 PM 24.8 °F 19.1 °F 21.2 °F 86% 30.32 in 1.0 mi East 4.6 mph - N/A   Overcast
10:53 PM 24.1 °F 18.2 °F 21.0 °F 88% 30.32 in 1.0 mi East 4.6 mph - N/A   Mist
11:03 PM 24.8 °F 19.1 °F 21.2 °F 86% 30.31 in 0.5 mi East 4.6 mph - N/A Fog Light Freezing Fog
11:44 PM 24.8 °F - 19.4 °F 80% 30.31 in 0.2 mi Calm Calm - N/A Fog Light Freezing Fog
11:53 PM 26.1 °F - 19.0 °F 75% 30.31 in 0.2 mi Calm Calm - N/A Fog Light Freezing Fog